Wind_Speed
31 31 31 29 29 28 27 24 23 20 19 16 16 15 17 17 18 20 24 26 28 29 31 24 14 13 5 5 4 4 4 6 6 7 11 11 12 11 11 7 7 12 10 7 9 9 14
34 31 32 32 32 30 28 27 25 22 20 18 17 17 17 18 21 19 22 26 29 28 33 16 12 7 3 3 4 4 7 6 4 6 7 9 6 7 6 8 9 1 9 13 13 15 16
38 34 32 33 35 32 30 29 27 24 22 19 19 19 17 19 21 21 23 23 27 33 21 11 10 2 1 5 1 1 3 4 1 2 3 4 3 8 3 6 3 8 13 13 12 6 7
25 38 34 35 36 35 33 31 29 26 23 20 20 18 18 18 20 22 23 23 25 29 10 9 4 2 3 1 2 1 1 4 3 4 4 3 5 5 6 2 7 10 11 11 9 4 1
15 34 37 38 37 37 34 33 30 28 25 20 20 18 18 18 19 21 23 25 26 12 7 5 3 5 4 3 2 1 2 2 3 4 2 3 6 4 5 10 9 8 10 7 6 2 3
34 19 42 39 38 38 38 35 31 29 26 22 21 19 18 18 16 19 22 24 7 5 6 3 3 4 2 1 3 4 1 0 3 6 6 6 5 7 7 8 5 5 8 7 8 3 9
39 35 21 41 41 41 40 36 33 30 27 23 20 19 17 16 15 16 20 5 4 3 2 2 2 4 1 4 1 7 4 3 3 3 9 6 10 8 1 5 6 7 10 13 14 13 12
28 41 30 26 45 43 41 37 34 31 28 25 21 19 17 15 13 12 9 2 4 2 7 4 2 5 3 4 4 7 5 5 2 3 4 6 11 4 3 5 7 7 10 13 19 14 18
30 34 42 20 39 44 41 36 35 32 29 26 22 19 15 14 10 7 1 2 2 5 5 3 4 3 2 3 2 7 8 3 3 3 5 6 2 3 6 6 7 10 10 16 17 24 20
32 27 39 40 32 41 36 36 34 33 30 27 24 19 15 11 6 4 3 6 1 6 5 6 5 5 5 3 2 3 4 3 5 0 2 6 3 5 6 7 9 15 11 12 18 15 14
35 33 30 31 50 32 34 32 35 32 32 29 26 21 17 15 1 4 5 2 3 2 5 8 4 3 3 3 7 5 4 5 6 4 5 2 5 9 15 16 8 12 11 13 18 17 20
38 37 34 33 38 36 34 40 36 31 33 31 27 23 20 13 8 4 6 4 3 2 7 7 4 5 7 4 3 3 4 5 2 6 9 13 3 7 13 13 12 11 11 15 16 10 9
40 39 38 34 33 41 35 46 36 33 35 33 29 27 23 12 6 12 7 4 4 6 4 6 4 5 6 4 5 4 4 5 5 4 9 4 8 4 5 9 3 6 12 6 6 7 9
41 42 40 37 33 42 36 43 40 39 37 35 31 28 25 12 9 13 7 4 9 6 6 3 4 6 5 6 3 5 5 8 5 7 8 5 4 5 5 3 6 13 6 4 7 9 15
43 43 42 39 38 37 40 44 45 43 39 36 31 26 12 17 14 12 5 7 8 10 7 8 4 5 6 6 2 5 5 7 2 8 4 5 5 2 4 4 5 2 5 4 11 17 11
45 45 44 41 38 39 46 42 46 43 40 39 27 17 12 16 16 7 6 13 11 3 5 5 10 6 6 7 4 4 2 3 3 5 4 2 6 8 8 6 8 11 4 5 4 5 8
46 46 44 42 38 33 37 41 41 44 45 45 19 6 14 21 14 4 10 11 16 5 2 5 7 5 7 4 6 5 4 2 5 3 5 5 7 3 1 9 11 8 10 7 4 6 5
48 47 45 44 44 34 39 42 41 40 50 45 14 7 24 29 8 4 10 13 9 13 4 3 4 10 11 8 5 6 9 9 7 5 9 3 2 5 9 4 7 11 12 14 5 7 6
50 48 47 46 45 35 37 49 43 46 58 30 9 3 14 14 11 8 3 8 10 10 7 8 10 8 8 8 5 14 9 3 2 7 5 5 4 3 3 3 4 8 11 15 8 1 15
51 48 48 47 44 32 37 51 55 52 59 29 5 5 2 3 7 21 9 8 14 5 4 6 5 5 5 7 9 6 7 2 5 1 1 2 4 8 11 13 6 5 10 12 12 8 18
51 50 49 46 41 35 34 40 52 59 64 30 7 6 8 8 6 16 17 15 16 9 6 7 4 11 10 6 9 11 11 2 2 4 1 3 5 4 7 9 11 15 14 15 17 19 11
49 47 45 43 43 41 39 35 60 64 67 26 7 5 6 6 16 16 20 16 21 17 11 9 12 13 17 15 12 12 6 6 5 4 5 2 2 2 4 12 13 17 17 20 22 20 19
47 46 45 44 40 36 33 35 55 65 65 11 8 6 10 11 15 17 15 21 22 17 10 14 15 15 11 16 3 1 2 3 7 8 7 5 3 3 6 1 6 14 19 21 17 12 11
45 45 42 41 35 36 33 32 61 65 68 16 17 9 5 4 13 17 20 18 18 22 16 6 5 10 7 16 11 6 8 6 2 7 7 6 4 3 3 3 7 5 2 3 9 8 10
43 43 39 38 35 35 37 39 62 65 68 10 16 13 5 5 12 15 18 23 21 16 11 5 2 2 14 4 3 2 1 2 5 2 4 3 4 3 4 7 10 13 6 7 7 10 10
44 41 38 31 28 31 41 50 67 61 54 27 21 25 3 8 11 13 15 17 8 6 4 3 6 5 4 2 3 7 7 4 5 6 6 4 1 5 4 5 6 6 8 4 1 9 9
41 38 33 31 23 35 38 46 61 58 56 47 9 19 6 4 3 9 10 13 7 6 4 5 4 2 2 3 4 5 5 2 7 8 8 5 3 9 8 7 8 1 10 7 3 2 7
39 33 29 25 28 27 26 55 55 57 54 39 6 22 8 4 3 6 3 5 5 4 6 6 4 1 2 5 5 4 4 6 4 4 6 10 7 5 7 6 10 11 11 6 3 4 7
32 29 27 24 23 21 21 48 57 54 50 36 7 14 20 7 3 7 11 12 6 4 7 8 1 6 6 4 3 3 3 4 4 4 5 6 5 2 7 5 3 15 6 12 5 6 8
Wind_Direction
240 242 243 242 242 244 247 247 253 257 265 269 279 289 300 309 315 322 325 323 323 326 331 331 330 329 329 247 83 12 80 158 153 174 195 193 200 213 227 231 216 243 265 268 264 262 263
241 237 242 242 243 242 242 248 250 254 260 268 275 284 296 305 310 319 323 323 320 323 330 329 327 310 293 254 5 82 115 124 213 211 194 208 224 215 239 240 241 15 276 279 276 273 276
245 239 239 241 241 239 240 244 246 250 256 263 272 280 291 301 307 317 319 322 320 321 328 335 335 358 239 62 132 333 126 117 160 302 201 211 217 215 189 237 268 275 281 278 260 261 265
245 247 241 240 242 239 237 238 242 247 250 257 266 277 288 297 307 314 317 318 318 319 321 334 2 287 67 336 315 58 175 150 176 293 286 273 210 260 254 313 249 272 267 272 139 253 232
281 245 243 242 240 240 236 236 238 242 246 250 261 270 281 293 303 314 316 320 318 314 302 334 316 277 118 150 173 348 28 142 143 151 352 163 204 239 208 243 256 214 278 275 296 167 298
253 289 243 241 244 243 236 232 233 237 244 243 255 264 276 289 303 314 316 321 322 315 299 299 270 252 173 22 313 297 301 80 130 147 169 216 223 225 219 228 255 320 280 287 293 342 293
253 255 278 241 242 242 239 232 228 232 235 242 244 257 269 283 298 313 326 323 270 203 284 293 358 302 344 320 217 205 171 183 158 172 229 206 241 227 202 245 304 285 286 295 303 332 318
257 235 258 254 236 238 238 234 228 226 229 233 237 248 261 272 291 311 325 1 91 18 298 200 224 266 272 300 146 181 182 241 220 56 191 209 244 297 218 219 224 247 285 289 304 310 319
252 248 236 254 245 232 234 232 231 225 224 226 229 237 251 264 284 295 335 107 102 113 250 233 209 221 140 226 110 145 195 219 249 171 214 284 25 339 229 189 223 251 278 293 304 314 298
249 256 256 234 265 232 237 231 232 226 221 219 222 225 232 244 275 206 219 170 311 125 269 175 212 165 149 224 160 136 192 257 192 146 262 284 17 268 236 244 275 288 308 298 301 304 300
242 249 255 265 239 247 241 239 233 224 220 214 215 214 216 207 266 214 135 219 134 156 268 140 161 118 144 211 134 141 184 215 264 243 225 258 249 255 277 283 284 283 315 290 289 281 292
241 245 249 254 244 236 245 242 231 222 220 213 207 203 203 208 217 230 158 146 177 213 240 167 156 178 178 149 155 138 206 226 307 275 254 265 282 262 279 293 292 294 286 279 270 277 259
233 241 246 250 250 237 234 241 232 223 216 210 201 198 194 189 192 197 164 185 209 223 114 177 173 198 193 174 168 224 203 221 260 270 248 257 247 255 274 262 213 235 318 298 264 215 268
230 237 241 248 245 241 222 231 226 217 209 204 196 191 195 205 177 165 163 191 223 203 200 83 144 153 220 186 182 176 218 265 204 238 282 273 216 179 154 297 320 302 278 274 297 293 302
228 232 237 239 243 245 230 228 224 212 199 194 184 182 186 205 183 165 198 205 211 214 149 157 150 198 194 160 266 211 249 278 255 192 247 258 238 139 217 264 294 125 247 9 284 269 276
223 229 233 235 235 236 221 217 214 203 191 183 166 164 197 189 176 167 208 222 214 199 143 155 200 199 211 168 210 226 204 142 186 218 221 318 280 238 279 263 241 244 17 246 212 277 276
219 223 225 229 230 241 231 211 216 198 186 175 157 171 174 185 156 197 211 212 220 197 151 183 194 164 226 209 230 258 227 180 218 181 225 269 206 122 79 218 262 220 237 235 293 252 269
217 219 220 226 232 237 233 213 214 204 182 165 155 194 167 168 188 194 213 210 211 213 153 231 186 200 211 217 215 250 234 223 204 229 256 209 233 218 229 257 271 259 263 229 222 211 234
214 216 217 223 229 221 228 208 210 202 182 165 157 119 177 189 194 194 207 181 216 206 195 191 198 203 208 232 240 240 256 61 165 221 196 187 204 283 210 219 190 222 220 232 232 343 246
212 211 214 220 222 216 234 201 206 206 183 166 132 150 219 215 220 196 169 189 202 178 216 189 172 120 164 221 231 248 229 119 42 296 27 210 206 195 250 274 350 210 222 234 239 249 258
209 210 211 216 222 220 225 218 204 200 178 170 175 191 181 187 182 200 187 172 194 196 232 187 174 205 190 206 221 235 256 200 94 151 103 169 239 222 254 276 269 262 265 231 226 236 257
207 206 208 214 212 222 227 242 196 195 179 183 164 149 179 155 168 191 189 199 196 194 164 210 221 200 212 224 211 259 239 185 189 159 169 139 237 216 247 257 259 265 252 242 238 243 263
204 204 204 211 218 223 227 243 208 197 179 182 162 143 164 164 168 189 202 196 199 189 217 224 215 213 214 234 233 97 127 75 163 162 178 174 198 199 269 161 293 272 238 239 245 246 252
202 204 201 212 220 223 232 246 204 198 187 178 172 148 135 156 175 196 195 191 190 199 206 183 206 198 123 107 97 58 45 47 162 184 157 167 183 181 274 261 255 75 98 200 212 223 245
202 202 204 214 223 222 234 244 203 205 196 180 175 174 174 144 183 169 186 193 205 209 220 190 152 70 139 111 89 130 90 212 201 183 137 175 172 193 237 230 302 222 202 198 212 256 265
201 202 208 212 221 231 242 209 199 200 195 198 196 193 152 163 200 170 167 181 167 146 115 106 54 63 73 101 164 196 209 190 175 152 158 98 199 212 162 249 267 88 141 119 217 267 154
199 202 206 213 207 237 237 212 199 204 204 198 181 182 166 130 51 159 175 184 133 130 121 129 149 72 354 152 181 187 205 181 186 192 178 176 179 222 222 256 279 330 152 153 222 91 162
198 198 205 209 215 226 244 201 203 202 201 189 147 191 185 99 46 14 23 147 121 162 141 139 102 173 159 204 190 169 213 194 195 179 182 182 189 194 213 233 257 150 155 206 107 209 274
189 196 200 202 213 224 229 199 197 200 197 181 107 125 124 77 103 79 74 40 11 69 118 169 46 146 163 142 176 158 171 173 189 213 194 212 213 210 212 230 114 185 211 220 217 247 282
Height
792 797 801 803 808 812 814 815 819 819 821 820 820 820 819 817 814 810 809 807 803 799 794 790 789 785 781 776 775 777 776 779 780 781 778 777 776 773 778 773 775 779 769 768 767 767 766
786 787 794 798 802 806 808 811 814 816 818 819 818 819 817 815 814 808 805 804 800 796 792 788 785 784 782 779 781 779 778 780 782 781 778 777 773 771 771 773 776 771 771 768 764 762 758
780 782 785 791 797 799 803 806 809 812 814 815 817 817 815 814 811 807 804 800 798 794 789 787 786 783 780 783 782 782 777 778 781 783 779 778 777 775 769 772 768 771 776 761 757 757 758
775 776 778 784 790 794 797 800 804 807 809 812 814 814 814 811 809 806 802 797 794 791 789 786 785 785 778 782 784 781 780 777 777 783 782 780 778 775 773 769 769 774 768 772 758 758 757
768 771 772 778 783 789 790 795 798 802 805 806 811 811 813 811 807 804 799 795 790 789 789 785 786 783 778 779 780 782 780 776 775 778 783 782 778 774 775 776 774 768 771 763 761 758 759
761 766 767 771 775 782 786 788 791 797 801 802 808 809 810 810 805 801 797 792 788 786 788 787 786 786 780 778 781 781 781 780 773 774 779 781 777 775 773 772 775 770 770 762 766 758 761
751 762 761 761 768 777 782 782 784 789 794 798 803 806 808 808 804 800 796 791 789 788 787 781 782 784 778 780 778 780 777 779 774 772 781 778 780 774 766 765 769 774 772 767 755 753 767
748 751 757 758 761 768 774 777 779 782 787 793 798 802 805 807 804 800 798 795 793 801 793 785 780 782 781 782 774 776 777 779 775 775 779 782 780 768 770 770 773 772 773 767 753 748 758
742 743 747 751 755 759 765 768 774 776 781 789 793 798 803 807 802 799 799 800 796 794 798 782 776 774 775 780 772 772 772 772 774 774 775 775 771 775 776 774 774 766 769 766 767 753 745
736 735 739 741 750 750 754 759 768 771 776 782 789 793 800 805 804 797 797 798 796 792 788 781 778 770 771 773 773 769 770 772 771 773 776 773 771 778 778 776 770 774 756 766 767 765 758
727 731 733 737 741 746 747 751 762 764 771 777 784 790 797 801 798 796 795 798 794 795 798 775 776 772 767 769 766 768 769 771 772 768 775 770 772 775 776 770 766 768 761 766 765 762 754
717 723 729 731 735 738 742 750 756 756 767 774 778 785 794 796 793 797 791 796 795 797 798 776 773 772 771 766 768 765 766 769 767 769 765 765 760 769 767 765 768 764 765 755 747 753 758
710 714 718 719 724 730 733 745 745 750 762 772 774 781 789 791 788 792 793 795 796 794 769 778 777 773 768 771 769 770 769 772 771 777 770 763 762 761 770 772 771 766 764 766 755 758 744
701 705 709 713 715 724 723 733 738 748 757 767 771 778 782 789 785 788 792 792 800 766 767 772 773 773 775 774 774 774 772 771 767 768 773 774 772 766 767 769 775 773 772 776 784 757 746
694 697 700 707 709 714 717 725 728 744 750 761 770 776 778 782 784 785 789 793 770 764 760 775 780 776 780 773 775 774 774 769 768 767 780 779 774 764 770 771 774 779 776 768 778 765 761
680 688 692 697 701 706 710 714 718 734 741 755 761 770 776 775 779 786 785 775 763 763 762 767 775 768 777 772 776 777 771 766 773 771 771 778 790 767 769 771 770 773 769 780 783 792 760
667 677 682 686 691 696 702 706 714 724 735 747 757 765 767 773 778 782 775 767 762 762 763 768 769 775 774 776 772 777 778 768 769 777 774 774 787 784 785 781 773 776 777 779 778 776 772
656 665 672 676 681 685 693 699 710 716 727 737 745 754 760 767 774 766 767 764 763 758 765 769 764 763 772 774 775 778 774 768 766 769 774 778 785 789 780 772 775 772 774 776 791 777 781
645 652 661 667 673 678 687 692 700 709 714 725 734 750 757 762 753 759 770 764 762 759 764 767 766 766 768 774 780 772 769 769 772 772 786 785 791 785 777 783 779 773 769 766 774 794 779
634 641 649 657 664 666 677 680 689 699 704 718 732 751 758 753 740 746 761 763 760 763 763 764 766 768 775 778 771 774 775 775 782 785 788 783 783 780 776 762 777 794 780 777 780 785 762
623 630 638 647 653 659 667 673 680 688 693 705 710 717 723 738 749 740 748 754 756 762 766 762 768 764 770 784 774 774 769 776 789 789 791 789 789 787 781 781 781 779 782 786 786 775 777
613 621 630 638 645 649 658 667 668 675 683 692 699 709 717 723 730 737 741 743 744 751 758 761 758 761 761 764 764 762 770 774 779 793 791 797 786 791 789 771 772 770 767 769 772 772 770
605 613 621 629 637 644 649 657 659 666 672 677 686 697 699 717 725 733 728 728 734 741 746 744 749 754 762 758 764 773 773 776 776 783 790 796 787 784 765 780 779 771 763 762 759 761 767
598 605 612 622 629 636 637 646 649 658 659 665 675 685 698 714 714 716 721 726 728 731 735 745 754 752 766 771 777 783 786 784 782 782 783 790 786 786 773 782 768 757 761 762 761 761 764
591 599 605 615 622 623 631 637 639 650 656 662 668 672 680 699 708 715 715 719 728 731 737 747 759 759 765 774 784 781 785 782 781 785 786 789 785 780 777 760 744 749 771 771 770 766 761
586 593 601 608 610 614 624 626 632 641 652 663 667 669 675 684 698 701 711 714 727 741 760 764 768 769 772 776 777 762 747 746 764 777 784 796 792 783 787 776 754 751 768 774 776 765 766
581 590 596 604 605 616 618 619 626 637 648 660 662 666 674 685 706 702 703 710 721 734 748 764 769 772 774 769 760 753 748 750 754 758 774 783 790 779 775 775 755 757 770 775 782 767 770
578 586 592 595 604 608 609 611 620 631 642 651 659 664 670 695 713 713 713 714 723 724 734 761 765 772 774 758 750 752 746 750 752 747 757 758 767 775 770 782 777 764 775 777 760 765 765
575 580 587 593 596 603 606 609 614 626 636 646 659 667 670 685 715 717 721 721 719 720 732 750 747 749 751 751 759 754 757 758 748 754 759 757 755 761 764 756 755 762 759 759 760 764 764